Regional Weather Roundup
Issued by NWS Jackson, KY

Home | Current Version | Previous Version | Text Only | Print | Product List | Glossary Off
Versions: 1 2 3 4 5 6 7 8 9 10 11 12 13 14 15 16 17 18 19 20 21 22 23 24 25 26 27 28 29 30 31 32 33 34 35 36 37 38 39 40 41 42 43 44 45 46 47 48 49 50

000
ASUS43 KJKL 200511
RWRJKL

EAST KENTUCKY HOURLY WEATHER ROUNDUP
NATIONAL WEATHER SERVICE JACKSON KY
100 AM EDT SAT SEP 20 2014

NOTE: "FAIR" INDICATES FEW OR NO CLOUDS BELOW 12,000 FEET WITH
NO SIGNIFICANT WEATHER AND/OR OBSTRUCTIONS TO VISIBILITY.

* THESE REPORTS ARE NOT UNDER NWS QUALITY CONTROL AND MAY NOT
  REPORT WEATHER SUCH AS PRECIPITATION AND FOG.

KYZ079-080-083-085-087-088-110-112-115-119-120-200600
...EASTERN KENTUCKY...

CITY           SKY/WX    TMP DP  RH WIND       PRES   REMARKS
JACKSON        CLEAR     66  61  84 CALM      30.14S
LONDON         PTCLDY    66  59  78 CALM      30.13S
SOMERSET*      CLEAR     61  61 100 SE5       30.12S
MONTICELLO*    CLEAR     65  63  93 S3        30.12S
MIDDLESBORO*   CLEAR     63  60  92 CALM      30.16S
HARLAN APT*    MOCLDY    66  55  68 MISG      30.18R
BLACK MTN*       N/A     55  54  94 SW2         N/A
PIKEVILLE APT* CLEAR     66  55  68 S3        30.15S
BIG SANDY*     CLEAR     68  58  70 S6        30.14S
MOREHEAD APT*  CLEAR     63  59  88 SE3       30.13S
$$

KYZ035-036-041-042-044-050-067-078-099-200600
...CENTRAL KENTUCKY...

CITY           SKY/WX    TMP DP  RH WIND       PRES   REMARKS
MT STERLING*   CLEAR     59  59 100 S5        30.12S FOG
FLEMING/MASON* CLEAR     59  57  94 S3        30.12S
DANVILLE*      CLEAR     57  55  94 CALM      30.11F
RICHMOND*      CLEAR     61  57  88 CALM      30.10S
LEXINGTON      PTCLDY    64  58  80 SE6       30.10S
FRANKFORT      CLEAR     57  54  89 CALM      30.08F
$$

KYZ091>093-OHZ055-061-077-WVZ005-015-034-035-042-200600
...SOUTHERN OHIO/WEST VIRGINIA...

CITY           SKY/WX    TMP DP  RH WIND       PRES   REMARKS
COVINGTON      PTCLDY    62  52  69 CALM      30.09S
COLUMBUS       PTCLDY    62  52  69 CALM      30.09S
DAYTON         PTCLDY    60  50  69 S7        30.09F
WILMINGTON     CLEAR     56  50  80 S3        30.10S
HUNTINGTON     PTCLDY    64  61  90 SE5       30.11S
CHARLESTON     CLEAR     65  58  78 S8        30.14F
PINEVILLE*     CLEAR     60  60 100 MISG      30.25F FOG
BECKLEY        PTCLDY    59  55  87 SE8       30.24F
BLUEFIELD      CLOUDY    62  55  77 VRB6      30.27S
$$

VAZ002-007-008-TNZ017-027-036-066-071-200600
...SOUTHWEST VIRGINIA/EAST TENNESSEE...

CITY           SKY/WX    TMP DP  RH WIND       PRES   REMARKS
WISE*          CLEAR     63  52  67 S9        30.23S
JONESVILLE*    PTCLDY    63  59  88 NE3       30.20S
ABINGDON*      CLEAR     62  57  83 CALM      30.24S
BRISTOL        CLEAR     61  54  77 CALM      30.20S
KNOXVILLE      MOCLDY    71  60  68 SE6       30.13R
OAK RIDGE      MOCLDY    72  62  71 CALM      30.15S
CROSSVILLE     CLEAR     68  59  73 S3        30.17S
NASHVILLE      PTCLDY    69  65  86 CALM      30.07S
$$

...KEY TO REMARKS...
VSB - VISIBILITY IN MILES
WCI - WIND CHILL INDEX
HX  - HEAT INDEX

$$


USA.gov is the U.S. government's official web portal to all federal, state and local government web resources and services.